Theta_e
340 337 339 340 341 341 340 339 340 340 340 340 338 338 338 339 340 340 340 340 339 338 338 337 337 337 336 333 330 326 324 321 319 317 314 309 308 312 314 320 326 327 327 329 332 333 334 334 334 335 335 335 335 334 334 334 334 334 333 333 332 332 332 333 334 334 334 334 332 331 333 334 334 334 334 333 328 324 323 322 320 317 316 320 330
339 338 340 340 341 341 341 340 341 342 341 340 338 337 336 336 337 340 340 340 339 339 338 338 337 336 335 333 331 328 324 322 320 318 315 309 307 312 314 318 323 325 325 325 327 331 333 332 334 334 335 335 334 334 334 334 333 333 333 332 331 331 331 331 331 330 330 330 329 327 331 334 333 333 334 334 329 325 322 321 318 315 312 311 319
339 340 340 340 340 341 341 340 341 341 340 339 338 336 334 332 333 337 339 339 338 338 338 337 337 336 335 333 331 328 323 322 321 319 317 309 307 312 313 315 320 323 323 324 326 330 332 331 332 332 334 334 333 333 333 333 333 332 331 331 330 330 330 329 329 328 328 327 326 324 329 333 332 333 334 334 332 326 321 320 316 312 311 308 311
340 340 340 340 340 341 342 341 341 341 339 338 338 336 334 332 331 333 335 335 335 337 337 336 336 336 335 333 330 325 323 324 322 321 318 310 306 309 311 311 315 320 320 323 328 330 331 331 331 331 332 333 333 332 332 332 331 330 329 329 329 329 329 328 328 327 326 326 326 324 328 332 333 332 332 333 330 325 320 316 311 307 311 312 310
340 339 340 341 340 341 341 341 341 339 338 338 338 338 336 333 330 329 331 333 335 336 336 335 335 336 335 333 328 324 324 325 323 322 320 315 309 309 313 313 312 317 319 323 329 330 330 330 330 330 332 333 332 332 331 330 330 329 328 328 327 328 327 327 326 326 326 325 325 323 324 327 331 331 330 330 324 317 314 313 312 308 310 314 313
340 339 339 340 340 339 339 340 339 338 338 338 338 338 337 334 331 330 331 333 335 335 334 334 335 335 335 333 327 324 326 326 324 322 321 320 315 314 318 318 317 318 320 325 329 330 330 330 329 330 331 332 332 331 330 329 329 329 327 327 326 326 326 326 326 326 326 324 323 321 320 322 327 329 328 325 316 312 317 320 321 318 316 317 318
339 339 340 340 340 338 339 339 337 338 338 337 337 337 338 335 332 332 332 332 332 332 333 333 334 335 334 332 327 324 327 327 325 322 322 321 319 320 322 322 323 323 323 326 328 329 329 329 329 330 331 331 330 330 329 328 328 328 327 326 325 324 325 326 326 326 325 325 324 322 321 323 325 327 326 321 316 318 323 325 325 325 323 321 322
338 339 340 340 340 339 340 338 337 337 338 337 337 337 338 337 333 330 330 330 330 331 333 333 334 334 333 331 327 326 328 328 326 323 321 320 318 321 325 326 326 326 326 327 328 329 329 329 329 329 331 330 329 328 327 327 327 327 326 326 325 324 325 327 327 326 325 325 325 325 324 325 326 326 325 323 322 323 325 326 325 325 325 324 324
339 339 340 341 340 340 340 338 338 337 338 337 337 338 337 338 335 329 329 331 331 332 332 333 333 334 333 331 327 328 330 329 327 324 321 319 315 315 322 326 326 326 327 328 328 328 328 328 328 329 330 329 328 327 327 327 327 326 326 326 325 325 325 326 326 325 324 323 326 326 326 326 327 326 325 325 325 325 325 325 325 324 325 325 325
340 340 340 340 340 340 340 338 337 337 337 337 337 338 337 338 335 331 331 332 332 332 331 332 333 333 334 332 329 329 331 330 328 324 322 319 314 310 313 319 324 327 327 327 328 328 328 328 328 328 328 328 327 327 327 326 326 326 326 326 325 325 325 325 324 323 321 321 324 326 326 326 326 326 325 326 325 324 325 325 325 325 325 325 325
340 341 340 340 341 341 340 339 338 337 337 337 337 337 337 337 335 332 332 332 330 330 331 331 332 333 333 333 331 330 330 330 329 325 321 319 315 308 306 308 316 325 327 327 328 327 327 328 327 328 327 327 326 326 326 326 325 326 326 326 325 325 324 323 321 321 321 321 324 326 326 327 326 326 326 326 325 324 325 324 325 325 325 324 325
340 341 341 340 341 341 340 339 338 337 336 336 337 336 337 337 334 330 330 330 329 328 330 331 331 332 333 333 332 330 330 330 330 326 322 320 316 309 304 302 308 320 326 326 327 327 327 327 327 327 327 325 325 325 324 324 325 325 325 325 325 324 323 322 320 321 323 323 324 325 326 327 327 327 326 326 325 325 325 325 325 325 325 324 324
339 341 341 341 341 341 340 340 339 337 336 337 336 336 336 336 335 330 328 330 330 330 330 331 331 333 333 333 332 331 331 331 330 328 323 320 317 310 304 301 302 311 321 324 325 326 326 325 326 325 325 324 324 324 324 324 325 325 325 325 324 323 323 322 321 322 324 325 324 324 324 326 326 326 326 325 325 325 325 324 325 325 324 324 324
339 340 341 340 341 341 340 341 340 338 337 337 336 336 336 336 335 332 330 330 330 331 331 331 331 332 333 332 332 331 331 330 330 328 324 320 317 312 304 301 300 304 312 318 321 323 324 323 324 324 323 323 324 323 323 324 324 324 324 324 324 323 323 322 322 323 324 324 324 324 324 325 325 325 326 326 325 324 324 324 324 324 324 324 323
339 339 340 340 340 340 340 341 340 339 338 337 336 335 336 336 336 334 331 330 330 331 332 332 331 332 332 332 332 332 331 330 330 329 325 321 318 313 306 301 300 300 304 310 313 316 318 319 320 319 318 318 319 320 321 322 322 323 323 323 323 322 322 322 322 323 323 324 325 325 325 325 325 326 327 327 326 325 325 325 324 324 324 324 324
339 339 340 340 339 339 339 340 340 340 339 338 337 335 336 336 336 335 333 331 330 331 332 333 332 332 332 332 332 332 331 330 330 329 325 321 319 314 308 302 300 300 301 302 304 306 308 308 309 308 308 308 309 310 312 313 316 320 322 322 321 322 322 320 320 320 322 323 324 324 325 326 327 327 327 326 326 325 325 326 325 325 325 324 325
338 338 340 340 339 339 339 339 340 340 340 339 338 337 337 336 336 335 334 332 330 331 332 333 332 332 332 332 331 331 331 330 330 329 327 322 320 317 312 308 303 301 300 300 301 301 301 301 301 301 301 302 302 302 302 304 309 315 318 319 320 320 319 317 317 318 319 319 321 322 323 324 326 326 326 326 326 325 325 325 326 325 324 323 324
337 338 339 339 339 340 340 339 340 340 339 339 338 338 337 336 336 335 334 333 330 330 332 332 331 332 332 331 331 331 331 330 330 329 327 323 321 320 319 316 311 306 301 300 300 300 300 300 300 300 300 299 299 299 299 300 303 307 312 315 318 318 316 315 316 318 319 319 319 321 321 322 323 324 324 324 325 325 324 324 325 325 324 323 324
337 339 339 339 340 340 340 339 339 339 339 339 339 338 338 337 336 335 335 334 332 331 331 331 331 332 332 331 330 330 331 331 330 329 328 325 322 322 322 321 318 314 309 305 301 300 299 299 300 300 299 299 299 298 298 299 300 302 306 310 313 313 313 314 316 317 318 319 319 320 320 320 321 322 322 322 323 324 324 324 324 324 324 324 324
337 340 340 339 338 339 340 337 337 339 339 339 339 338 338 337 337 336 335 335 334 332 331 331 331 332 331 331 330 330 331 331 331 330 329 326 323 323 323 322 319 317 315 312 308 304 301 300 300 299 299 299 299 298 298 298 298 300 303 306 307 308 310 312 313 314 316 317 318 319 319 319 320 320 321 321 321 322 322 323 322 323 323 324 324
338 339 338 340 337 338 339 335 335 337 338 338 338 338 338 337 337 337 335 334 334 333 332 331 331 332 331 330 330 330 331 331 331 330 330 327 324 323 323 322 320 318 316 316 313 310 306 303 301 300 299 299 299 299 298 298 298 299 301 303 304 306 308 309 310 314 317 317 318 318 319 319 319 319 319 320 320 320 320 320 320 320 320 322 322
338 338 336 337 336 335 336 334 333 334 338 338 337 338 338 337 337 337 336 334 334 335 334 332 332 331 331 330 330 330 330 331 331 330 329 327 325 324 324 323 321 318 316 316 315 313 311 309 307 305 303 303 303 301 300 299 298 298 299 300 300 302 304 306 309 315 318 318 319 318 318 319 319 319 319 319 319 319 319 319 319 318 318 319 319
337 337 336 336 335 334 335 335 334 334 337 337 335 337 337 336 337 336 336 335 334 335 335 333 333 332 331 331 330 329 329 330 331 330 328 326 325 324 324 324 323 320 318 317 316 315 315 313 312 311 310 310 309 308 306 305 304 304 305 305 305 305 305 305 309 314 317 319 319 319 319 320 320 319 319 319 319 319 319 319 319 318 318 317 317
337 336 336 336 336 336 336 336 336 336 335 333 333 335 336 337 337 336 335 335 334 335 335 333 333 332 331 331 330 330 329 330 331 329 328 326 325 325 324 324 323 321 319 319 318 318 318 316 315 314 314 314 314 313 312 312 312 312 312 312 312 311 310 309 310 313 316 317 318 318 319 320 320 319 319 319 319 319 318 318 318 318 318 317 316
337 336 336 336 336 336 335 334 336 336 334 333 333 333 335 336 336 335 335 335 335 335 334 333 333 332 331 331 330 330 330 330 330 329 328 326 325 325 324 324 323 321 320 320 319 320 320 318 317 316 316 316 316 315 315 315 314 314 313 312 311 311 310 309 310 311 312 314 316 316 318 318 319 319 320 319 319 319 319 318 318 318 318 318 317
336 336 335 336 334 333 333 333 335 335 334 335 335 335 334 333 334 336 335 335 336 334 334 334 332 332 331 330 330 331 331 330 330 329 328 326 326 325 324 324 324 321 321 320 319 320 320 318 318 318 317 317 316 315 315 315 314 313 312 310 310 309 308 307 307 308 309 311 313 315 316 317 318 318 319 319 319 319 319 319 318 319 319 317 317
334 335 334 335 334 334 333 332 332 332 333 334 335 336 334 332 333 336 335 334 335 334 334 334 332 331 331 330 330 330 331 330 331 330 328 327 326 325 324 324 324 323 322 321 319 319 319 317 317 318 317 317 316 315 314 314 313 312 310 309 308 307 306 305 304 305 306 308 311 313 314 315 316 316 317 318 319 319 318 318 318 318 318 317 316
332 333 333 333 332 332 331 329 329 330 331 331 333 334 334 332 330 333 333 334 336 335 335 334 332 332 331 331 330 330 330 330 332 331 329 327 326 326 325 324 324 323 322 321 319 318 318 318 317 317 317 317 316 315 313 312 311 310 309 307 306 305 304 303 302 302 303 305 308 311 312 312 314 315 316 317 317 318 318 317 317 316 316 316 315
329 329 329 329 329 328 328 327 326 326 328 329 330 331 331 330 328 331 332 332 334 334 336 336 333 332 332 332 331 331 331 330 332 332 330 328 327 326 325 324 324 323 322 320 319 319 319 318 317 316 316 317 316 315 314 312 310 308 307 305 304 302 301 301 299 298 299 302 305 307 309 310 311 312 313 314 315 316 316 317 316 315 315 315 315
327 327 327 328 327 328 327 328 327 326 326 326 327 329 330 329 328 332 332 331 333 332 335 335 334 333 332 332 332 332 331 330 331 332 330 329 327 326 325 324 324 324 322 319 319 320 319 318 317 315 316 316 315 314 313 311 309 306 305 303 301 299 298 297 295 294 295 297 300 302 304 306 308 309 310 310 311 312 313 314 314 315 315 314 314
324 325 326 325 325 325 324 324 324 324 324 324 325 329 331 330 329 331 330 331 334 333 333 332 333 333 332 332 332 332 332 331 331 331 331 329 328 327 325 324 324 323 322 319 319 319 318 317 316 315 315 315 313 311 311 309 307 303 302 301 298 297 296 294 292 292 292 292 293 295 296 298 301 304 306 308 308 309 310 311 311 312 312 312 313
319 320 321 320 319 319 318 318 317 318 320 321 322 325 329 330 329 330 332 332 333 333 332 329 331 332 331 333 332 331 332 332 332 331 331 330 328 328 326 325 325 323 321 319 319 318 317 316 315 314 314 314 312 309 309 309 305 300 300 299 296 295 293 291 291 291 291 291 291 291 292 292 293 295 298 301 303 304 306 308 309 309 309 309 310
316 316 316 316 315 315 314 314 313 314 314 316 319 321 325 329 329 329 331 330 331 333 330 328 332 332 331 332 331 330 330 331 333 331 331 331 329 329 327 326 326 323 320 319 319 318 317 316 313 312 312 312 311 308 307 306 302 298 296 296 294 293 291 290 291 290 291 291 291 291 291 291 291 291 292 293 295 296 299 302 305 307 308 307 308
316 315 315 314 314 314 313 313 312 311 311 313 317 320 323 328 329 329 329 328 331 332 328 326 331 332 329 329 330 329 329 330 331 331 331 331 330 329 328 326 327 324 321 320 319 317 317 316 312 310 309 310 309 306 304 301 298 295 293 293 292 291 290 290 290 290 291 290 291 291 291 291 291 291 291 291 291 291 293 295 299 302 304 305 306
315 315 315 314 314 313 312 312 310 310 312 313 315 319 323 326 328 329 330 328 329 330 329 329 331 331 328 328 330 329 330 330 329 330 330 331 330 329 329 327 327 326 322 320 318 317 317 315 311 310 308 307 307 303 301 298 295 294 293 292 291 290 290 290 290 290 290 290 290 291 291 291 291 291 291 291 291 290 290 291 293 295 298 301 303
314 314 314 313 313 312 312 310 309 312 315 315 316 319 322 325 327 328 329 327 325 329 331 332 331 330 329 330 331 330 331 329 327 328 330 331 330 329 329 328 328 327 323 320 318 317 316 313 310 310 309 306 304 300 297 296 294 293 292 291 290 290 290 290 290 290 290 290 290 290 291 291 291 291 291 290 290 290 290 290 290 290 292 294 298
313 313 313 312 312 311 310 310 311 313 315 316 316 319 322 325 327 328 328 325 326 330 331 331 331 331 331 331 331 330 329 328 327 328 328 329 329 329 329 328 327 326 323 320 317 316 316 312 308 308 310 307 303 299 295 294 294 292 291 290 289 289 289 289 289 289 290 290 290 290 290 290 290 290 290 290 290 289 289 289 289 289 289 289 291
311 312 312 311 311 311 309 310 313 314 315 316 317 320 323 324 327 329 327 326 328 329 328 330 330 330 330 330 330 328 326 326 328 328 328 328 327 327 327 326 325 324 323 320 316 315 314 313 308 305 308 307 303 300 296 294 294 292 290 289 289 289 289 289 289 289 289 290 289 290 290 289 289 289 289 289 289 289 289 289 288 288 288 288 288
310 310 311 311 311 310 309 311 314 314 315 317 318 320 323 325 326 328 327 326 327 328 327 328 328 328 328 328 328 326 325 326 327 327 328 328 326 327 326 325 324 323 322 318 315 314 312 312 309 305 304 305 304 301 297 295 292 290 289 289 289 289 289 289 289 289 289 289 289 289 289 289 289 289 289 289 289 288 288 288 288 288 287 287 287
309 310 310 310 310 309 308 311 313 314 315 317 318 320 323 324 324 325 326 325 325 327 326 327 328 328 327 326 325 325 325 325 326 326 326 327 326 326 325 323 323 322 320 317 315 315 313 312 309 307 304 300 299 299 299 298 292 289 289 289 289 289 288 288 288 288 288 288 288 288 288 288 288 288 288 288 288 288 288 288 287 287 287 287 287
308 309 310 310 310 308 308 311 313 315 316 317 318 320 322 323 323 324 325 324 324 325 325 326 327 327 326 324 322 322 322 322 324 324 323 325 325 324 324 322 321 321 320 318 316 315 314 312 309 308 307 300 295 294 299 300 294 289 289 289 288 288 287 288 288 288 288 288 288 288 288 288 288 288 288 288 288 288 288 288 287 287 286 286 286
307 308 309 309 309 309 309 310 313 315 315 316 319 321 322 323 323 324 324 323 323 324 324 325 326 326 324 322 321 320 321 322 323 323 323 322 322 322 322 322 321 320 320 318 317 315 313 312 310 306 304 303 298 294 297 299 294 290 290 289 288 288 287 287 287 287 287 287 287 288 288 288 288 287 287 287 287 287 287 287 287 286 286 286 286
307 308 309 309 309 308 309 310 312 315 316 317 318 320 321 323 323 323 324 323 322 322 322 323 324 324 323 321 320 319 321 323 323 323 322 320 320 321 322 321 321 320 319 318 316 315 313 312 313 308 303 302 299 295 297 299 295 292 291 291 290 290 289 287 286 286 286 287 287 287 287 287 287 287 287 287 287 287 287 287 286 286 286 285 285
306 308 309 309 309 308 309 310 311 314 316 317 318 319 320 321 321 322 323 322 322 321 321 322 323 322 322 321 320 319 318 320 322 322 321 319 319 321 321 321 321 320 320 319 317 316 314 312 313 312 307 301 295 294 297 299 297 295 294 293 291 291 292 290 287 286 286 286 286 286 286 286 286 286 286 286 286 286 287 286 286 285 285 285 285
305 307 308 308 309 309 309 309 311 313 315 317 317 318 319 319 319 319 319 319 318 318 319 319 320 320 320 320 319 318 317 318 321 321 319 319 319 320 321 321 320 320 320 319 318 316 315 314 313 312 310 305 298 295 296 297 297 298 297 295 293 294 295 290 288 287 286 285 286 285 286 285 285 286 286 286 286 286 286 286 285 285 285 284 284
305 306 307 308 309 308 309 309 310 312 314 316 316 317 318 318 317 315 314 313 312 313 316 318 318 319 319 319 318 317 317 319 320 320 318 319 320 319 320 320 319 319 318 318 317 316 315 314 314 313 310 308 303 298 297 296 296 298 299 298 297 297 295 289 289 289 286 285 285 285 285 285 285 285 285 285 285 285 286 285 285 285 284 284 284
304 305 306 308 309 308 309 309 309 311 313 315 316 316 317 317 317 316 316 315 314 314 318 318 319 320 319 318 317 317 318 319 319 318 317 319 320 319 319 319 318 318 317 316 316 316 315 314 313 313 310 307 305 301 299 297 296 297 299 299 296 294 294 291 289 290 288 286 285 284 284 284 285 285 285 285 285 285 285 285 285 284 284 284 284
303 305 306 307 309 309 309 309 309 311 313 315 315 315 316 316 316 317 318 319 318 318 319 318 319 319 318 317 316 317 318 318 317 317 318 318 318 319 318 318 317 316 315 315 316 315 314 313 312 311 310 307 305 304 302 299 298 297 296 295 293 291 293 292 290 290 290 289 287 285 285 284 284 285 284 285 284 284 285 285 285 284 284 284 284
303 304 305 307 308 309 309 310 310 311 313 314 314 315 315 315 316 317 317 317 316 317 317 318 318 317 316 316 316 317 317 317 316 316 317 318 318 318 317 316 316 315 315 314 315 314 313 313 311 310 309 307 305 305 304 302 300 298 295 291 290 290 290 290 289 290 290 289 289 288 286 284 284 284 284 284 284 284 285 285 285 284 284 284 284
302 303 305 306 308 309 309 309 310 311 311 312 314 314 314 315 316 316 315 314 312 313 314 315 315 314 314 315 315 316 317 317 315 315 316 317 317 316 316 316 315 314 314 313 313 313 312 311 311 310 309 306 304 304 305 303 300 298 295 292 290 290 288 288 288 288 288 288 288 288 286 285 285 285 284 284 284 284 284 285 284 284 283 284 283
302 303 304 306 308 309 309 309 309 309 309 310 312 313 314 314 314 314 314 313 312 312 313 312 311 312 313 314 315 315 316 316 315 315 314 315 315 314 315 315 313 312 310 309 309 309 309 309 309 309 307 305 303 303 303 302 299 295 293 291 291 291 289 289 288 288 288 287 287 287 285 285 285 285 284 284 284 284 284 284 284 283 283 283 283
Wind_Speed
12 14 14 15 16 14 14 17 16 14 15 16 16 16 15 16 17 17 18 17 17 17 17 17 17 17 18 20 22 22 22 22 22 22 22 22 19 18 16 16 16 16 17 18 18 19 19 19 18 18 18 18 19 20 20 20 21 21 22 22 22 22 23 23 23 23 24 24 25 24 23 23 23 22 22 23 24 24 22 22 23 25 25 22 20
14 14 13 15 16 13 13 16 16 13 15 16 16 15 14 15 15 16 17 17 17 17 17 17 17 17 17 19 20 20 21 21 22 22 22 22 20 19 18 17 17 17 17 17 18 18 19 18 17 18 18 18 18 19 20 20 21 22 22 22 22 22 23 23 23 23 23 23 24 24 24 23 23 23 22 23 24 25 23 23 23 24 24 21 20
14 14 13 15 16 15 13 14 14 13 14 16 16 15 14 14 15 15 16 16 16 16 16 16 16 16 17 18 19 19 20 21 22 23 22 22 20 20 19 18 17 17 17 18 18 19 19 18 17 18 18 18 18 18 19 20 20 21 21 22 22 23 23 22 22 22 22 22 22 23 23 22 23 22 22 22 22 23 23 23 23 23 22 21 20
14 15 14 14 15 16 14 14 13 13 14 15 16 15 14 15 14 14 15 16 16 16 15 15 15 16 16 17 18 19 20 21 22 22 22 22 20 20 20 19 18 18 18 19 19 19 19 19 18 18 18 18 18 18 18 19 20 21 21 22 22 22 22 22 22 22 22 22 21 22 21 21 22 21 20 20 20 21 21 21 21 22 21 22 21
15 15 14 14 15 15 14 14 13 13 14 14 15 15 14 14 15 15 15 15 16 16 15 15 15 15 16 17 18 19 20 22 23 22 21 21 21 20 20 20 19 19 19 19 19 20 20 19 19 18 18 18 17 17 18 19 20 20 21 21 21 21 21 21 22 22 23 23 22 22 21 21 21 20 19 18 18 19 19 21 22 22 22 22 22
15 15 14 14 15 15 14 14 14 14 14 14 14 14 14 14 14 15 15 16 17 16 15 15 15 15 15 17 18 19 21 22 22 21 20 20 20 20 20 20 19 19 19 19 20 20 20 19 19 19 19 18 17 17 18 19 19 20 21 21 20 20 21 21 22 23 23 23 23 23 22 21 21 20 18 17 17 19 21 22 23 23 23 23 23
14 15 14 14 15 15 14 13 14 14 14 13 13 13 14 13 14 14 15 16 16 16 16 16 16 15 15 17 18 19 21 21 21 20 19 19 20 20 20 20 19 19 19 19 20 20 20 20 19 19 19 17 17 17 18 18 19 20 20 20 20 20 21 22 22 23 23 24 24 24 22 22 22 21 19 20 20 21 22 23 24 23 24 24 25
15 15 15 14 15 14 13 13 14 14 13 13 13 13 14 13 13 13 14 15 15 16 16 16 16 15 15 16 17 19 20 19 19 19 18 18 19 20 20 20 19 19 20 20 20 21 20 20 20 20 19 18 18 18 18 18 19 20 20 20 20 21 21 22 22 23 23 23 23 23 22 21 22 22 21 22 23 23 23 23 23 23 24 25 26
16 15 15 14 14 14 13 13 13 13 13 13 13 13 13 12 12 12 14 14 15 15 15 15 15 15 15 15 15 17 18 18 18 18 18 18 18 19 20 20 20 20 20 21 20 21 20 21 21 20 19 18 18 18 19 19 19 19 19 20 20 21 22 22 23 23 24 24 23 22 22 22 22 22 22 23 23 24 24 24 24 24 25 26 26
15 15 14 14 13 13 13 13 13 13 12 12 13 12 12 12 11 12 13 13 14 14 15 15 15 15 15 14 14 16 17 17 17 17 17 17 17 18 19 20 20 20 20 20 20 20 21 21 21 20 19 19 19 18 18 18 18 19 19 20 21 21 22 22 23 25 26 26 25 23 24 24 22 22 22 23 23 23 24 24 24 24 25 26 26
14 15 14 14 13 13 13 13 12 12 12 12 12 12 12 11 10 12 12 12 13 14 14 14 14 14 14 14 14 15 15 15 16 17 17 17 17 17 18 19 20 20 21 21 21 21 21 21 21 20 19 18 18 18 17 18 18 19 20 20 21 21 22 23 25 27 28 29 28 25 26 24 23 22 22 23 23 23 23 24 24 24 25 26 26
14 15 14 13 13 13 14 13 13 12 12 12 12 12 12 11 10 11 11 12 13 13 13 13 13 13 13 13 13 13 14 14 15 16 16 16 16 16 17 17 19 20 20 21 21 21 21 21 20 19 18 18 17 17 17 18 19 19 20 20 20 21 22 24 27 28 28 29 28 27 26 24 23 22 22 23 23 23 23 23 23 23 24 25 25
15 15 14 13 12 13 14 13 13 13 13 12 12 12 11 11 10 10 11 11 12 12 13 13 13 12 12 12 12 12 13 13 14 15 16 16 16 16 16 17 18 19 19 20 21 21 20 20 20 19 18 18 17 18 18 19 19 19 19 19 20 21 22 25 28 29 28 28 27 27 26 23 22 21 21 22 22 23 23 23 23 23 23 23 24
15 15 13 12 11 12 13 14 13 13 13 12 12 12 11 11 11 10 10 11 11 12 12 12 12 12 12 11 11 11 12 12 13 15 15 15 16 16 16 17 17 18 18 19 20 20 20 20 20 19 18 18 18 18 18 18 18 18 18 18 19 20 22 25 27 27 27 26 26 26 25 23 22 21 21 21 21 22 22 23 23 23 23 22 23
15 15 14 12 11 11 11 13 13 13 13 12 13 12 12 11 11 10 10 10 11 12 12 11 11 11 11 11 11 11 11 11 12 14 15 15 16 16 16 17 17 17 17 18 18 19 19 19 19 18 17 17 17 17 16 16 16 17 17 18 19 19 21 23 25 26 26 26 26 26 25 22 21 21 21 20 20 20 20 21 22 22 22 22 22
15 15 14 13 12 12 11 11 12 13 12 12 13 13 12 12 12 11 10 10 10 11 11 11 11 11 11 11 11 11 11 11 12 13 14 15 16 16 16 17 17 17 17 17 17 18 18 18 18 17 17 17 17 17 16 16 16 16 16 17 19 19 20 22 24 25 24 25 26 26 25 23 20 20 21 21 19 19 19 19 20 21 20 20 20
16 15 13 12 12 12 12 11 12 12 12 12 13 13 13 13 12 11 11 10 10 10 10 10 10 11 10 11 11 11 11 10 11 12 13 14 15 16 17 17 17 17 17 17 17 17 17 18 18 18 18 18 18 18 17 17 16 16 17 18 19 19 20 21 24 25 24 24 24 25 24 22 21 20 20 21 21 21 21 20 19 19 19 19 19
16 16 13 12 12 12 12 12 11 12 13 12 13 12 12 13 13 12 12 11 10 10 10 10 10 10 10 11 10 10 11 10 10 11 13 14 14 16 17 17 17 17 17 17 17 17 17 18 18 19 19 19 19 19 19 18 18 17 17 17 18 19 19 22 25 26 26 25 24 24 22 21 21 21 19 19 21 22 23 22 20 20 20 20 20
17 16 14 14 14 13 14 14 11 12 13 12 13 12 13 13 13 12 12 11 11 11 11 10 9 10 10 11 10 10 11 10 10 11 12 13 14 15 16 17 17 18 18 17 17 17 17 17 18 18 19 19 20 20 20 19 19 18 18 18 18 18 20 22 25 26 26 26 25 24 21 21 21 21 20 20 21 22 22 22 22 22 22 22 22
18 17 16 16 16 15 16 16 14 14 12 12 14 13 13 13 14 13 12 12 12 12 11 10 9 9 10 11 10 10 11 10 10 11 12 13 13 14 15 17 18 18 18 18 18 18 17 17 17 18 18 19 20 20 20 20 20 19 19 19 19 20 21 22 24 26 27 27 25 24 22 22 22 22 22 22 22 22 22 21 20 21 23 23 22
19 19 18 17 17 16 15 14 14 14 13 12 14 14 14 14 15 14 13 14 13 12 11 10 9 10 10 10 10 10 11 10 10 11 12 13 13 14 15 17 18 19 19 20 20 19 18 18 18 18 18 18 19 20 20 20 20 20 19 19 20 21 22 22 24 27 28 27 25 23 23 23 22 23 23 23 23 22 23 22 20 20 21 20 21
19 20 20 18 18 18 15 14 14 13 14 14 14 15 16 15 15 15 15 15 14 13 12 12 10 11 11 11 11 10 11 11 11 11 12 13 13 14 15 16 18 19 20 20 21 20 20 19 19 19 19 19 19 20 20 20 20 20 19 19 21 22 21 22 24 26 27 27 25 22 21 22 21 22 22 22 22 22 22 23 23 22 21 21 22
21 20 20 20 20 19 17 15 14 15 16 16 15 15 15 14 15 16 16 16 15 14 13 12 12 12 12 11 11 11 11 11 11 11 11 13 13 13 14 15 16 18 19 20 21 21 21 21 21 21 21 21 21 22 22 22 22 21 21 22 22 22 21 21 22 24 24 25 25 23 21 21 21 20 20 21 21 21 21 22 23 23 23 23 24
24 22 21 21 20 19 17 14 14 16 16 16 17 15 14 15 15 16 16 16 16 14 14 14 13 13 12 12 12 11 12 12 13 12 11 13 14 13 13 15 16 17 18 20 21 21 21 21 22 22 22 22 23 23 22 23 23 23 23 23 23 22 21 21 20 20 21 22 25 24 21 20 20 20 20 20 20 20 21 21 21 22 23 23 24
24 22 22 21 19 18 17 15 15 16 15 15 18 17 16 16 15 15 16 15 15 15 15 15 15 14 13 13 13 13 12 13 14 14 12 13 15 14 13 14 16 17 17 18 20 20 19 20 21 22 23 23 23 22 21 21 22 22 23 22 22 21 20 20 18 18 19 21 25 24 21 21 21 20 20 20 20 21 20 20 21 22 22 23 24
24 24 24 23 22 22 21 20 17 17 16 15 17 20 18 18 16 16 18 16 15 17 16 17 16 14 14 14 15 15 14 14 15 15 14 14 16 15 14 14 15 16 16 17 19 19 18 20 22 22 22 21 21 21 20 19 20 20 21 21 21 21 20 19 18 18 19 22 25 24 22 23 22 21 21 21 21 20 20 20 22 22 21 22 23
25 25 24 24 23 23 23 24 21 19 18 15 17 20 19 19 19 17 18 18 17 17 17 18 18 15 15 15 16 16 17 17 18 18 15 16 16 15 16 15 15 16 14 14 17 19 19 21 23 23 21 20 19 19 19 18 18 19 20 20 20 20 20 18 17 18 18 21 23 23 23 23 23 22 22 21 22 21 20 20 21 21 20 20 23
25 25 23 23 23 22 23 24 24 22 21 19 17 19 18 19 21 19 17 17 17 17 18 19 17 15 14 15 15 16 18 18 21 21 17 17 18 16 17 15 15 15 13 14 18 20 20 21 23 22 21 19 17 17 18 18 18 18 18 20 20 20 19 18 17 17 17 18 20 23 24 23 22 22 22 22 22 23 23 22 20 20 20 20 24
28 28 26 25 25 24 24 23 23 23 24 24 21 20 19 19 20 22 19 18 19 18 18 18 17 17 15 15 15 16 17 18 22 22 19 20 19 18 19 17 16 15 15 16 18 20 20 20 21 22 21 19 17 16 17 17 17 17 18 19 19 19 19 18 18 18 18 18 19 21 24 25 23 22 23 22 22 22 23 22 21 21 22 23 26
29 28 27 27 25 25 25 24 23 23 23 24 25 23 20 19 21 22 21 21 23 23 21 19 20 20 18 17 16 16 16 17 21 21 21 23 20 19 20 18 17 16 16 18 18 19 20 20 21 22 22 19 18 16 17 18 17 17 18 18 19 19 19 19 19 20 20 21 21 20 21 23 24 24 24 23 23 22 21 22 22 22 22 25 27
27 27 27 26 25 25 24 23 23 23 23 23 25 26 21 20 22 22 22 23 24 24 22 20 21 20 19 20 20 18 16 16 19 19 22 24 20 20 22 21 19 17 18 20 19 19 20 21 21 23 22 20 19 18 17 18 18 19 18 18 19 19 19 20 21 21 22 22 22 21 20 20 22 23 23 24 24 23 22 22 23 23 23 24 24
27 27 27 25 25 24 23 22 22 23 24 24 24 27 26 22 21 22 23 24 21 19 18 18 22 21 19 21 21 19 17 16 17 18 22 23 19 19 22 23 22 20 21 21 22 21 21 22 21 24 23 21 21 19 18 18 18 19 19 18 18 18 19 20 20 21 21 21 21 21 21 20 19 19 20 21 22 22 23 23 23 23 23 22 22
27 26 24 24 24 23 22 22 21 22 24 26 25 25 28 25 22 22 22 23 24 22 18 18 22 20 18 19 17 17 17 16 16 18 23 23 19 21 23 24 23 23 24 23 23 23 22 23 23 24 24 22 22 21 20 20 19 20 20 19 19 19 19 20 20 20 20 20 20 20 20 19 19 18 18 17 18 19 19 21 22 23 22 21 21
26 24 24 24 24 22 22 21 21 23 24 26 26 24 27 27 23 22 22 23 23 23 21 21 23 21 19 21 18 17 17 16 14 16 25 25 21 22 24 25 23 22 25 24 24 25 24 24 24 25 25 24 24 23 22 23 22 21 21 19 19 20 19 19 19 18 18 18 18 18 18 18 17 17 17 16 15 16 16 17 18 20 21 22 22
25 25 26 24 23 22 21 20 20 21 21 23 27 25 26 27 24 23 25 22 19 20 23 25 26 23 21 23 23 22 19 16 12 15 24 25 23 24 25 25 21 20 25 26 26 26 25 26 26 26 27 26 25 25 24 25 23 22 21 19 19 19 18 18 18 17 17 17 17 17 17 16 16 16 15 15 14 14 14 14 14 15 17 19 21
26 26 25 23 22 21 19 19 17 17 17 20 24 25 25 26 25 25 24 22 21 21 24 25 26 25 23 22 23 22 19 17 14 16 19 20 23 26 25 24 21 21 25 26 27 27 26 27 27 26 27 27 27 27 26 25 24 22 20 19 19 18 18 17 16 16 15 15 16 16 15 15 14 14 13 13 13 13 12 12 12 12 13 15 18
25 25 25 23 22 20 18 17 15 15 16 18 22 24 24 25 26 26 23 23 24 22 22 25 25 24 22 20 19 18 16 14 17 20 19 19 21 22 22 22 22 24 25 26 28 28 29 29 29 26 25 27 29 28 27 26 23 22 20 19 19 17 17 16 15 15 14 14 14 14 14 13 13 12 12 12 11 11 11 12 11 11 12 13 14
24 24 24 23 22 19 18 16 15 15 16 19 21 23 24 25 25 24 22 22 21 19 21 25 24 19 18 17 17 16 13 14 20 25 25 21 18 20 21 21 23 25 25 27 30 31 30 30 30 27 24 26 29 28 28 26 23 22 21 19 18 17 16 15 14 13 12 13 13 13 12 12 11 11 11 11 10 10 10 10 10 10 11 11 11
24 24 24 23 21 19 18 17 17 17 18 19 21 22 24 25 25 25 24 22 21 21 23 24 20 18 18 18 16 14 12 14 18 23 25 22 18 20 22 22 24 24 26 31 33 32 31 30 29 28 27 26 26 27 27 26 24 23 21 19 17 16 15 13 12 11 11 12 12 11 11 10 10 10 10 9 9 9 9 9 10 10 11 11 11
25 25 24 24 23 21 19 19 19 19 19 20 22 23 25 25 26 25 25 25 25 25 24 22 19 19 20 19 16 15 15 15 15 16 18 18 18 20 22 23 24 24 28 34 35 34 32 30 29 29 29 28 27 27 25 24 25 24 21 19 16 14 13 12 11 11 11 11 10 9 9 9 8 8 9 8 8 7 8 8 9 10 11 10 9
27 27 27 26 25 23 22 22 22 21 22 23 25 26 27 28 26 24 23 25 26 24 23 22 22 22 21 18 15 15 16 17 16 15 14 16 18 20 22 23 24 25 29 34 35 34 32 30 29 29 29 30 30 27 23 23 24 23 19 17 16 14 12 11 11 10 10 10 9 8 8 7 7 8 8 7 6 6 7 7 9 9 9 9 9
31 30 29 28 26 24 24 24 24 24 24 25 26 27 28 28 28 27 26 25 24 23 24 24 24 24 22 18 15 14 15 19 20 18 16 17 20 22 24 26 28 30 32 34 35 34 32 29 30 31 28 28 29 29 26 21 20 21 19 15 12 11 10 10 10 10 9 9 7 7 6 6 6 6 6 5 5 5 6 6 7 8 9 9 10
32 32 31 29 27 26 25 25 26 27 26 26 26 27 27 27 27 27 27 25 22 23 25 26 25 24 23 19 16 14 15 19 20 20 20 20 21 25 28 29 30 33 35 36 35 33 31 29 30 31 30 28 27 29 27 19 18 23 19 9 4 5 5 5 8 9 8 7 6 6 5 5 5 5 5 4 5 5 6 6 6 7 8 9 10
30 32 32 31 30 28 26 26 26 27 28 27 27 28 27 27 26 24 26 26 24 24 24 24 24 24 23 21 18 15 16 20 21 21 22 21 23 28 32 32 31 32 33 34 33 32 31 31 31 30 30 30 30 30 25 18 21 22 13 5 3 3 1 4 7 8 8 7 5 5 5 5 5 5 4 4 5 6 6 5 6 6 7 8 9
31 33 34 33 32 29 27 26 26 28 28 28 28 28 27 28 26 24 25 25 24 25 24 24 25 25 23 20 18 15 16 21 23 23 21 21 23 30 34 33 33 32 30 30 30 31 32 32 31 30 29 29 31 30 22 19 24 20 11 6 5 1 1 7 10 6 7 8 6 6 5 5 5 4 4 4 5 5 5 5 5 6 6 7 7
33 34 34 33 31 29 27 26 26 28 29 29 30 29 28 29 28 27 26 23 22 24 26 27 27 25 22 20 18 16 18 22 24 23 21 21 25 30 32 31 30 29 28 28 29 32 33 31 31 30 29 28 31 31 24 23 25 18 12 9 4 3 5 11 8 3 6 7 6 6 5 5 5 4 4 4 4 4 4 4 4 5 5 5 6
32 32 31 32 31 29 29 28 26 29 31 31 31 30 30 31 31 30 28 26 25 26 27 27 26 25 23 21 19 19 22 24 24 24 23 24 29 31 30 28 26 26 27 29 30 32 32 31 31 30 29 29 31 32 28 27 26 16 12 12 7 5 10 12 7 3 4 6 6 6 5 5 5 3 3 3 3 3 3 3 3 4 3 3 3
30 29 30 31 32 30 30 30 28 30 33 33 32 32 32 32 31 29 28 29 28 28 27 26 26 25 23 21 21 22 24 25 25 26 25 27 31 30 28 26 24 26 28 30 30 31 32 32 33 31 29 29 29 30 30 29 26 19 14 13 9 10 13 12 10 8 5 3 6 6 5 5 4 3 2 1 1 1 1 1 1 2 2 1 1
28 29 31 32 32 31 31 31 31 31 33 34 33 33 33 32 30 29 29 28 28 28 28 28 27 26 23 22 22 23 25 26 26 28 28 28 29 29 26 24 25 27 29 30 31 32 32 33 34 32 31 30 29 28 28 28 26 22 19 16 14 14 13 10 10 10 5 3 4 5 7 7 4 3 1 2 2 2 2 2 1 1 2 1 1
26 28 30 31 32 32 32 32 32 32 33 34 34 33 33 32 31 31 30 29 28 27 28 29 28 26 24 23 24 25 26 26 26 28 30 29 30 29 26 25 26 28 29 30 32 32 32 33 33 33 32 30 29 27 24 24 24 21 20 19 18 17 13 9 10 10 7 5 3 4 9 9 5 4 2 4 5 4 4 4 3 3 3 3 3
25 27 28 30 32 33 33 33 33 32 32 34 34 34 34 34 33 32 32 32 30 29 29 29 28 28 26 25 26 27 27 27 27 28 29 30 30 29 26 26 26 27 29 30 31 32 33 33 32 32 32 29 28 26 24 23 23 21 19 18 18 16 12 9 13 14 10 7 5 5 8 8 6 6 3 3 5 5 6 6 5 5 4 4 4
Wind_Direction
145 140 134 126 119 120 124 118 117 121 119 117 115 114 112 109 106 103 101 99 97 95 91 88 87 86 87 88 84 77 72 67 64 61 58 58 63 72 76 81 82 82 82 82 83 84 85 83 81 80 80 81 81 82 81 79 79 78 77 76 75 75 76 76 76 76 76 76 73 69 65 63 62 60 60 58 57 58 60 60 60 56 51 51 50
146 142 139 131 126 128 128 120 122 127 122 119 118 117 118 117 112 107 104 101 99 97 94 93 91 89 88 88 83 76 71 68 65 62 59 57 64 73 76 79 81 82 83 85 86 88 89 86 85 84 83 84 84 84 82 80 80 80 78 78 77 77 77 76 75 75 75 75 76 75 70 65 64 63 62 59 56 57 59 59 57 54 51 51 52
146 145 141 134 133 134 131 123 123 126 122 121 120 119 119 119 117 115 111 107 103 99 97 97 95 92 89 88 83 76 71 69 67 64 61 59 65 74 76 77 80 82 83 85 86 88 90 89 88 86 86 86 86 86 83 81 80 80 80 79 79 78 77 76 74 72 71 72 74 78 74 66 63 62 62 60 57 57 58 55 53 54 53 53 53
150 148 144 141 138 137 134 128 125 127 123 121 120 117 115 113 115 117 116 111 105 100 98 98 97 93 89 88 82 76 71 70 69 67 64 62 67 75 76 75 78 81 83 84 86 88 89 90 88 88 88 88 87 86 83 81 79 79 80 79 78 77 76 74 72 70 69 70 73 77 77 68 62 60 60 58 55 54 52 50 51 56 58 56 55
152 151 148 147 142 137 134 130 129 129 124 122 120 117 115 111 112 114 114 110 105 101 100 100 98 94 91 89 81 76 73 71 71 69 67 65 68 75 75 74 76 79 81 83 85 88 89 89 88 88 89 89 89 87 84 81 80 79 78 78 76 76 74 72 71 70 70 71 72 74 75 71 64 59 59 56 52 50 49 50 52 56 59 58 56
154 154 151 150 141 135 132 130 131 128 123 122 119 116 114 110 110 111 112 110 108 105 102 102 99 95 94 90 83 78 74 72 73 71 68 67 70 73 74 74 75 77 80 83 85 87 89 88 88 89 89 90 89 87 85 82 81 79 77 76 74 75 75 74 73 73 73 70 69 68 68 68 65 60 58 55 52 53 54 54 55 55 56 58 56
156 156 153 151 143 137 136 133 132 130 125 122 119 117 115 111 109 109 111 111 110 107 103 102 100 99 96 90 83 80 78 75 74 72 70 69 71 73 72 73 74 76 79 83 86 88 88 88 88 89 89 89 88 85 82 80 80 78 76 74 73 74 76 77 76 75 73 69 65 64 63 64 64 61 58 57 57 59 59 56 56 56 54 55 57
161 159 157 153 146 142 139 138 136 133 129 124 121 121 118 113 110 112 113 111 108 104 102 102 101 100 97 90 83 82 81 78 76 73 72 70 73 75 73 72 74 76 79 83 85 87 87 87 88 89 87 87 85 83 80 78 77 75 74 72 73 75 78 79 78 75 71 67 63 60 62 63 63 60 57 59 59 58 59 58 57 57 55 55 57
164 162 162 156 150 147 144 143 140 136 133 128 125 122 120 115 112 115 115 110 106 103 103 102 101 103 99 92 86 85 84 80 76 74 74 72 73 78 77 74 75 78 80 82 84 85 86 87 88 88 87 86 85 82 80 78 76 75 74 74 76 78 79 79 76 73 68 67 65 61 63 64 63 60 58 59 58 57 57 58 57 56 57 57 58
168 165 166 161 156 153 148 147 143 140 138 132 128 124 121 118 116 117 114 108 106 105 106 105 103 104 101 96 89 87 85 81 76 73 74 73 72 77 81 80 79 80 82 83 83 84 86 87 88 89 87 86 85 83 81 80 79 77 79 79 80 80 78 77 73 69 66 67 68 66 65 64 64 61 60 60 58 57 58 58 57 56 57 57 58
170 167 170 168 163 158 153 152 149 145 144 138 132 130 126 122 121 122 118 109 107 107 107 107 105 105 104 100 93 89 87 83 77 74 74 74 72 75 81 84 84 83 83 83 83 84 86 87 87 87 86 86 86 85 85 85 84 82 83 83 81 80 77 74 72 71 69 68 69 67 66 64 63 62 60 60 58 57 58 58 58 56 55 56 57
173 172 174 171 168 164 159 158 155 151 148 145 140 136 133 128 125 125 122 112 109 109 107 106 105 107 106 102 96 91 89 84 78 74 74 75 73 75 81 85 87 86 86 85 85 85 87 88 88 88 89 90 90 89 87 84 84 83 84 83 81 79 77 76 74 74 73 71 68 66 65 62 62 63 60 59 57 57 58 57 58 57 54 53 55
175 176 178 172 173 169 163 164 162 157 152 149 147 144 140 136 130 127 126 121 117 114 111 109 109 110 107 104 98 92 90 86 79 75 74 76 76 77 82 85 87 88 89 88 87 87 87 89 88 88 91 91 90 87 85 84 84 85 85 83 82 80 79 78 77 76 75 73 70 66 64 62 61 61 59 58 57 57 57 56 56 56 54 53 54
175 177 178 171 173 171 167 171 169 159 156 155 153 150 147 143 138 134 133 131 127 123 120 118 117 116 112 108 103 97 93 88 83 77 73 76 77 78 82 86 86 87 88 89 89 88 89 91 88 88 91 89 88 87 87 89 88 87 86 85 84 83 83 82 80 77 76 74 73 70 67 63 62 61 60 58 57 57 56 56 55 54 54 54 54
178 177 174 175 174 172 173 176 172 165 163 162 160 157 154 151 146 143 141 137 133 130 128 126 124 123 118 114 108 103 99 92 87 80 76 77 78 79 84 87 88 88 88 90 90 91 91 92 91 91 91 89 89 89 90 90 90 90 89 89 88 88 88 86 82 79 77 77 76 73 69 64 62 62 60 57 58 61 59 57 57 55 55 55 53
181 180 175 178 176 173 176 177 174 173 172 167 164 163 161 160 155 153 151 145 141 140 137 134 130 128 124 121 116 111 107 99 93 86 81 82 82 82 86 88 89 90 90 90 90 91 91 90 90 90 88 87 87 87 87 89 90 93 93 93 93 93 91 87 83 80 79 78 77 73 66 61 60 61 60 58 57 59 61 61 62 57 58 59 55
184 185 178 178 180 181 182 183 182 180 177 173 171 170 169 167 165 163 160 156 152 151 147 144 139 134 132 128 125 120 115 108 103 94 88 88 88 87 88 88 88 89 90 90 90 90 90 89 89 88 87 87 86 86 86 88 91 94 96 97 97 95 92 88 84 81 79 77 75 70 63 58 56 58 60 61 56 54 57 61 62 57 57 59 53
183 184 181 184 186 184 185 185 185 186 184 180 177 175 175 172 172 172 169 167 162 163 159 153 149 145 140 135 133 130 124 118 114 102 95 96 96 94 91 90 88 88 90 91 91 91 90 90 90 90 90 89 88 88 87 88 91 94 97 98 99 97 94 90 87 84 80 77 73 66 61 59 55 54 56 59 56 52 54 57 58 56 57 55 51
179 182 186 194 195 190 192 189 185 190 191 186 183 180 180 178 177 180 179 178 173 172 170 162 158 154 149 145 143 138 133 128 122 110 101 101 103 101 96 94 93 91 91 92 92 91 91 91 91 92 91 92 90 89 88 88 89 91 94 96 98 98 96 93 89 85 81 77 72 66 62 61 58 56 55 57 57 54 53 55 58 58 59 58 56
177 182 186 192 195 193 195 199 194 189 189 190 192 186 182 184 183 187 187 185 185 181 178 174 167 161 158 152 150 146 141 136 127 116 107 106 108 106 103 101 99 97 96 96 96 94 94 93 92 92 91 91 90 89 88 88 89 91 94 96 97 96 94 92 89 84 79 75 71 67 65 64 62 61 60 60 60 58 55 53 57 59 58 59 59
184 189 191 192 197 200 205 211 208 194 190 197 201 191 185 191 190 192 195 192 190 188 186 185 177 168 166 160 155 154 148 144 135 124 114 111 112 111 108 107 104 103 102 100 99 97 96 94 92 92 91 90 89 89 89 89 91 92 94 95 94 92 91 90 89 85 81 76 71 67 66 65 63 63 61 61 61 60 58 55 55 56 55 55 56
188 193 200 201 202 211 217 217 217 201 191 202 212 202 191 194 194 194 198 197 193 193 193 191 187 176 171 167 161 160 155 150 144 135 127 121 120 120 114 110 107 105 105 103 101 98 95 93 92 91 90 89 88 88 89 90 91 92 92 92 89 88 90 90 90 88 85 81 76 71 68 67 65 64 62 62 62 60 58 57 55 54 53 52 52
193 196 200 200 200 206 210 211 218 205 194 204 216 212 200 199 202 201 200 200 197 196 198 196 193 186 179 174 169 166 161 156 152 149 143 133 127 128 121 113 110 108 108 106 102 99 96 93 92 92 90 88 88 88 90 91 91 91 90 87 86 87 87 88 90 90 88 87 82 74 69 68 66 64 63 62 61 61 59 57 57 56 54 53 53
194 198 195 193 194 197 202 203 206 205 205 212 216 213 205 202 205 208 205 203 203 198 199 201 198 193 187 181 178 175 168 161 158 162 160 144 135 135 128 119 113 112 111 108 105 99 96 96 96 94 92 89 88 89 90 91 91 90 87 85 85 84 84 86 88 89 90 90 85 75 67 66 66 65 66 65 62 61 62 60 58 58 58 58 58
194 199 197 195 200 206 214 212 201 200 212 221 216 211 209 211 212 218 214 205 206 203 200 202 201 198 192 188 185 180 175 167 164 171 173 153 143 145 138 129 121 117 116 114 110 103 99 101 101 97 92 88 87 88 88 89 90 88 86 83 82 81 81 82 84 86 89 92 85 76 71 69 65 65 66 65 63 63 64 63 63 63 64 65 63
199 203 205 208 215 218 222 223 211 202 211 216 209 205 208 217 219 220 215 208 208 206 205 204 201 198 194 191 188 184 178 172 173 179 179 162 152 153 149 139 129 124 122 120 119 116 114 114 109 102 95 88 85 86 86 87 89 88 86 83 80 78 78 78 81 84 89 94 87 79 79 73 66 65 66 65 64 67 68 68 69 68 67 69 68
203 205 207 210 214 216 219 225 219 211 215 217 211 203 201 211 218 220 214 210 213 207 206 209 204 196 195 194 193 190 182 176 179 184 184 170 161 159 158 149 136 131 128 128 130 126 124 121 115 108 101 90 84 85 85 87 89 89 87 83 81 78 77 77 81 86 89 93 89 84 81 73 69 67 65 67 66 66 65 66 68 67 64 65 67
209 211 213 214 218 221 225 228 225 219 218 221 222 212 208 215 223 231 224 210 211 210 208 214 208 194 196 199 200 199 188 183 183 187 190 177 170 165 162 158 144 140 141 143 139 132 128 123 117 112 105 94 88 88 86 87 88 87 85 83 81 78 77 78 83 87 87 88 89 89 83 74 71 68 65 66 65 62 60 60 62 63 63 64 66
214 215 217 220 224 225 227 230 229 226 221 222 223 222 225 225 225 228 228 219 214 215 209 212 214 201 201 203 206 210 195 186 187 192 192 181 178 170 164 164 154 150 154 153 146 138 133 128 123 116 108 100 96 96 93 90 88 86 85 84 82 79 78 81 85 88 88 86 87 90 89 83 76 69 67 67 66 62 59 58 58 61 64 64 64
213 214 215 218 219 220 223 225 227 228 227 224 219 218 221 222 226 222 221 226 222 218 210 212 217 204 202 205 207 211 200 192 193 197 193 181 182 175 167 170 165 163 164 158 152 145 139 136 131 121 113 106 103 105 102 98 95 90 86 85 84 83 83 86 89 89 90 89 87 87 88 88 84 75 69 67 66 63 59 58 56 56 56 58 60
211 210 211 213 215 218 220 222 224 226 229 228 218 213 213 214 223 222 219 225 221 210 207 216 219 210 213 210 201 204 203 201 199 201 196 182 182 181 173 174 172 171 171 162 157 152 145 142 134 125 119 112 112 112 105 100 101 97 90 87 88 88 90 93 93 92 91 89 88 86 84 84 85 81 74 69 67 64 61 59 56 54 55 56 57
209 210 210 211 214 218 220 222 225 226 228 230 223 215 214 211 215 223 220 218 219 209 208 225 220 217 224 203 193 205 206 209 207 202 198 186 183 186 179 178 177 175 175 167 161 156 149 144 137 131 125 120 121 119 110 105 105 103 98 95 95 95 97 99 96 94 92 90 89 88 85 83 80 81 81 79 77 73 68 64 60 58 58 58 56
211 211 211 213 217 220 224 227 229 232 230 227 227 217 212 212 214 223 221 216 222 220 219 229 213 211 221 202 201 219 209 211 214 204 201 194 189 189 186 183 182 177 175 170 164 158 153 148 141 136 130 127 127 122 117 112 110 108 105 104 102 101 102 100 97 94 92 90 89 87 85 84 80 78 77 78 80 80 77 72 67 63 59 58 56
216 213 214 217 220 224 228 234 237 238 233 224 222 215 209 212 215 220 221 221 223 217 216 223 214 211 222 219 225 226 208 205 211 206 200 196 192 191 190 187 184 180 175 173 168 162 158 153 146 140 133 131 129 126 122 117 115 113 109 108 104 104 103 99 97 94 92 89 87 85 82 79 77 75 73 72 73 76 78 78 76 71 64 59 56
219 217 219 221 223 227 232 239 240 233 228 220 214 210 208 210 215 216 214 218 228 223 214 214 215 216 218 220 224 221 206 196 201 208 200 194 191 191 191 187 184 183 178 176 172 164 161 156 150 143 135 133 131 128 125 120 119 116 112 110 107 107 104 100 98 93 91 89 85 82 79 76 73 72 70 69 68 69 71 73 77 77 72 64 57
220 219 220 222 224 229 234 236 234 221 215 212 207 205 206 208 213 211 210 222 230 221 209 210 216 216 215 215 216 212 200 193 202 208 205 202 197 189 186 185 185 186 180 177 174 167 163 156 151 148 140 136 134 129 126 123 120 116 114 114 111 110 105 101 98 94 91 87 83 79 76 74 71 69 68 67 66 66 66 65 68 72 74 69 61
220 220 220 222 225 228 233 229 223 214 205 203 201 199 204 210 210 205 213 224 217 211 212 213 211 205 204 204 203 201 199 208 210 206 207 207 202 192 186 187 189 184 178 177 176 169 164 157 150 150 146 141 137 131 128 125 121 120 119 117 113 110 106 101 97 95 91 85 82 79 77 74 73 71 68 67 65 62 62 60 59 59 62 64 62
221 221 222 224 227 229 230 221 214 211 202 200 199 198 202 207 206 202 210 214 208 215 214 202 196 195 199 201 199 197 210 228 215 207 203 195 201 205 196 191 188 180 177 178 175 167 163 159 152 149 149 146 140 134 132 129 126 126 123 119 116 110 104 102 99 96 91 86 83 79 77 76 74 72 69 65 63 60 58 56 54 51 52 54 54
221 221 222 223 225 227 224 212 207 207 202 200 198 198 202 202 199 196 199 206 212 216 205 191 194 204 201 197 195 192 209 222 208 203 200 191 200 208 197 187 183 181 180 175 170 165 162 161 155 149 148 146 142 139 136 132 129 127 124 118 113 110 107 105 103 98 91 86 84 81 79 77 73 70 68 64 61 59 58 56 52 48 48 49 50
223 221 219 219 220 220 215 205 204 205 200 199 198 198 199 198 194 190 193 204 208 206 199 193 199 204 194 188 190 192 204 210 196 196 199 192 193 194 187 182 182 184 179 172 169 168 166 163 158 154 149 143 141 141 140 138 130 121 119 117 112 111 111 110 106 99 94 89 86 85 80 78 76 71 67 63 60 58 57 57 53 50 50 50 50
221 219 216 216 216 215 209 202 201 203 200 199 198 198 197 195 193 195 201 201 198 198 197 194 196 196 190 187 191 196 208 215 208 205 206 196 189 187 185 182 182 182 179 175 172 170 168 165 160 157 153 145 142 142 146 147 134 119 114 112 110 112 113 112 109 102 99 97 93 90 85 82 78 74 71 67 62 59 59 59 54 50 51 51 50
216 214 214 214 214 212 208 204 200 201 202 202 200 200 201 200 198 200 203 197 197 206 205 199 194 192 189 187 191 201 213 213 208 212 216 207 198 194 190 186 183 180 177 175 173 170 169 168 163 157 154 152 149 148 151 151 141 134 130 116 105 109 112 112 110 107 105 103 101 96 90 87 83 83 82 75 72 69 68 65 55 49 47 48 47
216 213 213 212 211 209 207 204 202 202 202 203 203 202 204 205 202 198 199 201 206 210 203 196 191 189 190 187 190 202 211 207 204 211 215 209 206 202 193 187 184 180 175 172 173 173 171 173 172 164 157 155 155 156 159 162 154 145 137 125 123 124 117 121 116 112 113 111 110 106 100 100 97 98 99 90 89 86 83 75 59 50 46 46 46
213 212 210 209 209 206 203 199 200 203 202 203 205 203 201 203 202 201 201 202 202 198 193 191 190 190 191 190 194 204 218 219 211 208 206 204 210 207 194 184 182 181 178 174 175 178 177 177 177 174 167 160 157 162 167 172 166 154 138 110 139 157 188 176 150 127 120 116 113 116 110 113 114 112 114 103 98 98 97 86 65 53 48 46 46
212 212 209 208 208 205 201 198 198 203 205 205 203 202 201 200 197 196 195 192 189 189 190 193 191 191 191 194 204 214 224 220 205 199 201 203 208 201 189 180 178 180 182 183 184 185 183 181 182 182 180 173 166 167 171 175 174 169 158 136 132 185 212 160 160 152 142 129 114 126 126 122 123 121 119 107 106 110 108 94 69 56 50 45 44
214 213 211 209 208 205 200 197 197 201 205 207 204 203 205 203 195 187 185 184 185 191 198 198 194 193 197 204 212 215 214 205 196 198 203 204 200 190 184 180 179 184 189 192 192 188 185 185 189 189 187 185 176 171 173 175 177 179 182 181 187 222 165 152 156 162 166 154 125 128 136 131 125 117 115 111 114 121 116 101 69 54 48 42 40
216 213 210 208 207 206 202 197 196 199 204 206 206 206 207 204 199 195 195 195 195 199 202 201 200 201 205 209 211 207 204 202 201 204 206 203 195 187 186 190 193 197 197 196 194 190 189 190 192 192 190 189 182 177 175 175 178 185 197 203 212 198 168 161 167 151 162 180 165 148 141 137 129 115 123 118 114 123 130 115 66 44 43 44 37
216 210 208 207 206 206 204 200 198 201 204 206 207 208 206 204 202 202 205 206 205 205 204 202 203 204 206 207 207 203 203 207 208 208 207 202 196 192 195 201 203 200 194 194 194 192 193 192 190 193 193 192 190 186 180 177 179 182 187 193 188 177 172 174 181 167 144 166 178 171 158 150 141 122 132 185 172 180 180 156 68 24 19 30 18
214 210 208 207 205 204 203 200 200 203 206 206 207 209 208 207 206 206 208 207 207 207 204 201 201 202 204 205 204 202 203 210 212 209 205 202 201 201 203 205 203 197 194 195 195 195 196 193 191 193 193 193 195 194 186 181 183 183 178 176 167 164 168 171 175 169 149 143 173 182 170 163 161 151 171 247 248 253 229 215 248 302 317 278 301
213 210 208 205 203 202 200 199 200 203 206 206 207 209 210 210 212 211 210 208 206 204 199 197 197 198 201 201 201 202 205 212 213 207 203 202 203 204 205 206 202 198 198 198 197 197 196 194 193 193 193 194 194 196 193 187 187 187 182 178 170 162 159 161 170 169 155 142 149 172 172 170 176 173 185 242 248 258 238 225 241 270 282 262 270
210 207 204 202 201 200 199 198 200 201 203 206 208 209 210 212 213 213 212 209 205 200 196 195 195 196 198 199 200 203 207 211 210 205 203 202 203 203 204 205 203 201 200 199 198 196 193 192 193 193 194 196 195 195 193 187 185 187 187 187 183 174 171 176 180 178 169 159 152 158 172 179 193 190 187 239 240 242 236 229 238 252 260 251 256